SIA12 WSSS-RJAA

Flight info

Callsign SIA12
Flight time N/A
Altitude 35000
Route TOMAN5B TOMAN L625 LUSMO N884 LAXOR/N0491F360 N884 LULBU/N0493F350 N884 LUBAN/N0436F210 TR23 CAB/N0491F350 R597 PIBEM/N0489F370 R597 VIGOR DCT KEITH A339 YOSHI A590 MOE Y81 RUTAS
Aircraft B77W/H-SDE1E2E3FGHIJ2J3J4J5M1RWXY/LB1D1

Departure

Time N/A
Airport Singapore Changi Airport (WSSS)

Arrival

Time 2026-05-05 12:10
Airport Narita International Airport (RJAA)
Time Latitude Longitude Altitude Speed Heading
2026-05-05 11:48 34.80365 140.68715 21680 ft 429 kts
2026-05-05 11:49 34.83317 140.69030 21185 ft 424 kts
2026-05-05 11:49 34.86246 140.69257 20771 ft 417 kts 356°
2026-05-05 11:49 34.89109 140.69102 20545 ft 407 kts 351°
2026-05-05 11:49 34.91912 140.68821 20381 ft 400 kts 351°
2026-05-05 11:50 34.94655 140.68525 20251 ft 392 kts 351°
2026-05-05 11:50 34.97354 140.68236 20061 ft 387 kts 351°
2026-05-05 11:50 35.00035 140.67956 19786 ft 385 kts 352°
2026-05-05 11:50 35.02660 140.67690 19397 ft 383 kts 352°
2026-05-05 11:51 35.05344 140.67426 18947 ft 381 kts 353°
2026-05-05 11:51 35.07946 140.67175 18489 ft 379 kts 353°
2026-05-05 11:51 35.10570 140.66925 17955 ft 377 kts 353°
2026-05-05 11:51 35.13180 140.66677 17478 ft 375 kts 353°
2026-05-05 11:52 35.15767 140.66432 17005 ft 372 kts 353°
2026-05-05 11:52 35.18345 140.66187 16536 ft 369 kts 353°
2026-05-05 11:52 35.20894 140.65945 16073 ft 367 kts 353°
2026-05-05 11:52 35.23445 140.65701 15614 ft 365 kts 353°
2026-05-05 11:53 35.25966 140.65459 15158 ft 363 kts 353°
2026-05-05 11:53 35.28486 140.65220 14706 ft 361 kts 354°
2026-05-05 11:53 35.30988 140.64980 14259 ft 360 kts 353°
2026-05-05 11:53 35.33475 140.64741 13755 ft 358 kts 353°
2026-05-05 11:54 35.35960 140.64504 13267 ft 356 kts 353°
2026-05-05 11:54 35.38422 140.64270 12803 ft 354 kts 353°
2026-05-05 11:54 35.40892 140.64034 12164 ft 358 kts 353°
2026-05-05 11:54 35.43374 140.63797 11656 ft 357 kts 353°
2026-05-05 11:55 35.45814 140.63563 11206 ft 355 kts 353°
2026-05-05 11:55 35.48277 140.63326 10757 ft 353 kts 353°
2026-05-05 11:55 35.50698 140.63095 10598 ft 342 kts 353°
2026-05-05 11:55 35.53038 140.62872 10436 ft 332 kts 353°
2026-05-05 11:56 35.54551 140.62727 10340 ft 326 kts 353°
2026-05-05 11:56 35.56783 140.62513 10185 ft 317 kts 353°
2026-05-05 11:56 35.58950 140.62306 10052 ft 308 kts 353°
2026-05-05 11:56 35.61059 140.62102 9829 ft 301 kts 353°
2026-05-05 11:57 35.63139 140.61902 9482 ft 300 kts 353°
2026-05-05 11:57 35.65198 140.61702 9173 ft 297 kts 353°
2026-05-05 11:57 35.67249 140.61503 8862 ft 294 kts 353°
2026-05-05 11:57 35.69267 140.61308 8562 ft 292 kts 354°
2026-05-05 11:58 35.71293 140.61113 8245 ft 290 kts 354°
2026-05-05 11:58 35.73310 140.60917 7893 ft 290 kts 354°
2026-05-05 11:58 35.75303 140.60725 7732 ft 283 kts 354°
2026-05-05 11:58 35.77271 140.60535 7265 ft 287 kts 353°
2026-05-05 11:59 35.79269 140.60341 6947 ft 286 kts 354°
2026-05-05 11:59 35.81229 140.60152 6819 ft 277 kts 354°
2026-05-05 11:59 35.83130 140.59868 6260 ft 277 kts 341°
2026-05-05 11:59 35.84742 140.58656 5959 ft 268 kts 313°
2026-05-05 12:00 35.85907 140.56962 5804 ft 259 kts 307°
2026-05-05 12:00 35.87031 140.55233 5665 ft 257 kts 307°
2026-05-05 12:00 35.88162 140.53495 5513 ft 256 kts 307°
2026-05-05 12:00 35.89261 140.51809 5395 ft 256 kts 307°
2026-05-05 12:01 35.90382 140.50095 5262 ft 256 kts 307°
2026-05-05 12:01 35.91501 140.48384 5133 ft 256 kts 307°
2026-05-05 12:01 35.92621 140.46674 4995 ft 257 kts 307°
2026-05-05 12:01 35.93745 140.44961 4880 ft 257 kts 307°
2026-05-05 12:02 35.94870 140.43246 4740 ft 257 kts 307°
2026-05-05 12:02 35.96000 140.41523 4613 ft 258 kts 306°
2026-05-05 12:02 35.97091 140.39771 4482 ft 257 kts 304°
2026-05-05 12:02 35.98157 140.37992 4337 ft 257 kts 303°
2026-05-05 12:03 35.99212 140.36233 4212 ft 258 kts 303°
2026-05-05 12:03 36.00241 140.34439 4063 ft 252 kts 295°
2026-05-05 12:03 36.00640 140.32395 3939 ft 243 kts 263°
2026-05-05 12:03 36.00242 140.30413 3841 ft 237 kts 243°
2026-05-05 12:04 35.99450 140.28628 3743 ft 237 kts 237°
2026-05-05 12:04 35.98605 140.26902 3625 ft 232 kts 236°
2026-05-05 12:04 35.97710 140.25315 3484 ft 218 kts 220°
2026-05-05 12:04 35.96397 140.24562 3369 ft 206 kts 184°
2026-05-05 12:05 35.95038 140.24859 3273 ft 192 kts 164°
2026-05-05 12:05 35.93824 140.25412 3222 ft 179 kts 160°
2026-05-05 12:05 35.92719 140.25991 3099 ft 166 kts 160°
2026-05-05 12:05 35.91680 140.26585 3046 ft 165 kts 156°
2026-05-05 12:06 35.90669 140.27252 3028 ft 165 kts 154°
2026-05-05 12:06 35.89689 140.27943 2912 ft 166 kts 153°
2026-05-05 12:06 35.88699 140.28656 2693 ft 162 kts 153°
2026-05-05 12:06 35.87741 140.29352 2473 ft 157 kts 152°
2026-05-05 12:07 35.86835 140.30012 2258 ft 144 kts 153°
2026-05-05 12:07 35.86022 140.30604 2070 ft 127 kts 153°
2026-05-05 12:07 35.85254 140.31160 1945 ft 128 kts 153°
2026-05-05 12:07 35.84491 140.31713 1747 ft 129 kts 153°
2026-05-05 12:08 35.83723 140.32271 1570 ft 128 kts 152°
2026-05-05 12:08 35.82950 140.32832 1404 ft 129 kts 152°
2026-05-05 12:08 35.82176 140.33394 1231 ft 129 kts 152°
2026-05-05 12:08 35.81400 140.33959 1051 ft 130 kts 151°
2026-05-05 12:09 35.80604 140.34539 860 ft 135 kts 151°
2026-05-05 12:09 35.79797 140.35126 696 ft 139 kts 151°
2026-05-05 12:09 35.78963 140.35729 516 ft 139 kts 150°
2026-05-05 12:09 35.78129 140.36332 333 ft 138 kts 149°
2026-05-05 12:10 35.77294 140.36937 182 ft 140 kts 149°
2026-05-05 12:10 35.76503 140.37509 150 ft 120 kts 150°
2026-05-05 12:10 35.75978 140.37890 150 ft 55 kts 143°
2026-05-05 12:10 35.75805 140.38185 150 ft 38 kts 119°
2026-05-05 12:11 35.75713 140.38371 149 ft 20 kts 91°
2026-05-05 12:11 35.75755 140.38527 149 ft 20 kts 113°
2026-05-05 12:11 35.75688 140.38668 149 ft 20 kts 77°
2026-05-05 12:11 35.75777 140.38799 149 ft 20 kts 26°
2026-05-05 12:12 35.75907 140.38869 149 ft 20 kts 24°
2026-05-05 12:12 35.75993 140.38875 149 ft 6 kts 297°
2026-05-05 12:12 35.75984 140.38802 149 ft 10 kts 260°
2026-05-05 12:12 35.75981 140.38778 149 ft 0 kts 260°